Terug naar catalogus

ICEYE-X43

ActiefWetenschapSSO
NORAD 60539·PAYLOAD·🇧🇷 Brazil

Gelanceerd Aug 16, 2024 vanaf Vandenberg Space Force Base

Loading…

Volgende Passages (komende 24 uur)

TLE

VersSource: Space-Track

Epoch: Sep 14, 2026, 11:52 UTC

1 60539U 24149BZ  26257.49452444  .00002955  00000-0  24195-3 0  9996
2 60539  97.6715 333.2141 0010667 102.7672 257.4744 15.00027028113500

Volg ICEYE-X43 in realtime met AllMySat

Download on the App Store